Location: Asheville, NC
(35.6000°N, 82.5500°W)
Time: 20:10:37
(UTC-04:00)

LilacSat-2 - Pass Details

Date: 09 January 2018
Orbit: 515 x 536 km, 97.5° (Epoch: 25 April)

Event Time Altitude Azimuth Distance (km) Brightness Sun altitude
Rises 18:56:51 0° 213° (SSW) 2,669 ? -16.3°
Reaches altitude 10° 19:00:18 10° 246° (WSW) 1,786 ? -17.0°
Maximum altitude 19:01:41 12° 268° (W) 1,685 ? -17.3°
Drops below altitude 10° 19:03:05 10° 289° (WNW) 1,791 ? -17.6°
Sets 19:06:33 0° 323° (NW) 2,687 ? -18.3°
